Regional Weather Roundup
Issued by NWS

Home | Current Version | Previous Version | Graphics & Text | Print | Product List | Glossary On
Versions: 1 2 3 4 5 6 7 8 9 10 11 12 13 14 15 16 17 18 19 20 21 22 23 24 25 26 27 28 29 30 31 32 33 34 35 36 37 38 39 40 41 42 43 44 45 46 47 48 49 50
000
ASUS43 KDMX 271601
RWRIA

WEATHER ROUNDUP FOR IOWA
NATIONAL WEATHER SERVICE DES MOINES IA
1100 AM CDT MON MAR 27 2017

NOTE: "FAIR" INDICATES FEW OR NO CLOUDS BELOW 12,000 FEET WITH NO
SIGNIFICANT WEATHER AND/OR OBSTRUCTIONS TO VISIBILITY.

* - THESE STATIONS ARE NOT NWS STATIONS...THUS NOT UNDER NWS
QUALITY CONTROL.  THEY ALSO DO NOT REPORT WEATHER SUCH
AS PRECIPITATION OR FOG.

IAZ001>003-012>014-020>022-031>034-043>046-271700-
   NORTHWEST IOWA

CITY           SKY/WX    TMP DP  RH WIND       PRES   REMARKS
CARROLL *      CLOUDY    45  43  93 NE10      29.97R
CHEROKEE *     CLOUDY    46  39  78 NE7       29.98S
DENISON *        N/A     45  39  81 NE6       29.99
LE MARS *      PTSUNNY   48  39  71 NE7       29.99S
ORANGE CITY *  MOSUNNY   46  39  76 N3        29.98S
SHELDON *      CLOUDY    45  30  57 CALM      29.97S
SIOUX CITY     CLOUDY    48  40  73 NE3       29.98S
SPENCER        CLOUDY    44  39  82 N7        29.98R
STORM LAKE *     N/A     45  39  81 NE9       29.97R
$$

IAZ055>058-069>071-079>083-090>094-271700-
   SOUTHWEST IOWA

CITY           SKY/WX    TMP DP  RH WIND       PRES   REMARKS
ATLANTIC *     CLOUDY    45  41  87 N10       29.97R
AUDUBON *      CLOUDY    45  39  81 N12       29.98R
CLARINDA *     CLOUDY    46  43  87 N12       29.99R
COUNCIL BLFS * CLOUDY    46  45  93 N9        29.98R
CRESTON *      CLOUDY    45  41  87 N8        29.97R
HARLAN  *      CLOUDY    45  45 100 N10       30.01R
LAMONI         CLOUDY    46  44  93 NE6       29.93R
RED OAK *      CLOUDY    46  41  81 N10       29.97S
SHENANDOAH *   CLOUDY    48  43  81 N10G16    29.98S
$$

IAZ047>049-059>061-072>074-084-271700-
   CENTRAL IOWA

CITY           SKY/WX    TMP DP  RH WIND       PRES   REMARKS
AMES           CLOUDY    46  43  89 N9        29.95R
ANKENY *       CLOUDY    45  41  87 NE6       29.96R
BOONE *        CLOUDY    45  43  93 N10       29.95R
CHARITON *     CLOUDY    45  45 100 E7        29.93R
DES MOINES     CLOUDY    47  41  80 N7        29.95R
GRINNELL*      CLOUDY    45  42  91 NE7       29.95R
MARSHALLTOWN   CLOUDY    45  43  93 N9        29.93S
NEWTON *       CLOUDY    46  43  87 NE6       29.94R
PELLA *        CLOUDY    46  44  90 E3        29.94S
PERRY *        CLOUDY    45  41  86 N12       29.96R
$$

IAZ004>006-015-016-023>025-035-036-271700-
   NORTH CENTRAL IOWA

CITY           SKY/WX    TMP DP  RH WIND       PRES   REMARKS
ALGONA *       CLOUDY    43  39  87 N9        29.97S
CLARION *      CLOUDY    43  43 100 N8        29.96R
ESTHERVILLE    CLOUDY    44  38  79 N7        29.97R
FORT DODGE *   CLOUDY    45  36  70 N6        29.97S
MASON CITY     CLOUDY    42  37  82 N9        29.96S
FOREST CITY *  CLOUDY    41  41 100 N9        29.96R
WEBSTER CITY * CLOUDY    43  41  93 N12       29.94S
IOWA FALLS *   CLOUDY    43  40  88 N6        29.96R
$$

IAZ007>011-017>019-026>030-037>042-050>054-066-271700-
   NORTHEAST IOWA

CITY           SKY/WX    TMP DP  RH WIND       PRES   REMARKS
CEDAR RAPIDS   CLOUDY    47  44  90 E8        29.92S
CHARLES CITY * CLOUDY    43  43 100 N7        29.95S
CLINTON *      CLOUDY    48  44  86 E6        29.95R
DECORAH *      CLOUDY    43  41  93 NE6       29.93S
DUBUQUE        CLOUDY    46  42  86 NE7       29.92S
MONTICELLO *   CLOUDY    46  43  87 NE6       29.93S
OELWEIN *      CLOUDY    45  45 100 N8        29.94R
WATERLOO       CLOUDY    44  40  85 N8        29.94R
$$

IAZ064-065-067-068-078-271700-
   EAST CENTRAL IOWA

CITY           SKY/WX    TMP DP  RH WIND       PRES   REMARKS
DAVENPORT      CLOUDY    48  44  86 E7        29.94R
IOWA CITY      CLOUDY    50  44  80 E6        29.95R
MUSCATINE *    CLOUDY    50  46  87 NE6       29.95R FOG
QUAD CITIES    CLOUDY    50  45  83 NE8       29.93S
$$

IAZ062-063-075>077-085>089-095>099-271700-
   SOUTHEAST IOWA

CITY           SKY/WX    TMP DP  RH WIND       PRES   REMARKS
BURLINGTON     CLOUDY    49  48  97 NE5       29.93R FOG
FAIRFIELD *    CLOUDY    48  45  87 E8        29.93S
FORT MADISON * DRIZZLE   50  48  93 E3        29.94S
KEOKUK *       CLOUDY    48  48 100 NE6       29.93S FOG
OSKALOOSA *    CLOUDY    47  44  91 NE7       29.93S
OTTUMWA        CLOUDY    49  46  90 E8        29.92F
WASHINGTON *   CLOUDY    48  48 100 E6        29.94F FOG
$$

ABBREVIATIONS USED IN REMARKS
   TC - TEMPERATURES IN CELSIUS
  WCI - WIND CHILL INDEX
   HX - HEAT INDEX
  VSB - VISIBILITY
$$





USA.gov is the U.S. government's official web portal to all federal, state and local government web resources and services.